Location: Newark
(7.0858°N, 171.3717°E)
Time: 05:59:19
(UTC+00:00)

Courier 1B Rocket - Pass Details

Date: 27 November 2020
Orbit: 920 x 1202 km, 28.2° (Epoch: 20 January)

Event Time Altitude Azimuth Distance (km) Brightness Sun altitude
Rises 12:30:35 0° 203° (SSW) 3,843 - -75.7°
Reaches altitude 10° 12:35:13 10° 176° (S) 2,957 - -75.5°
Maximum altitude 12:38:16 13° 151° (SSE) 2,786 - -75.3°
Drops below altitude 10° 12:41:23 10° 126° (SE) 3,037 - -75.1°
Sets 12:46:16 0° 100° (E) 4,048 - -74.7°
